• In Hungary
  • List of Countries
  • For 7 days
  • Water Temperature
  • Satellite Maps
  • Weather Map
  • News
  • Weather Widgets
  • user-avatar
    Login

    Hourly Weather Kastornya

    Today, 15 November, Thursday

    Time Temperature Precipitation Wind Pressure Humidity
    00:00 -4°C° 0 mm 5 mps 756 mmHg 48%
    01:00 -3°C° 0 mm 4 mps 756 mmHg 50%
    02:00 -4°C° 0 mm 4 mps 756 mmHg 52%
    03:00 -4°C° 0 mm 4 mps 756 mmHg 53%
    04:00 -4°C° 0 mm 3 mps 756 mmHg 55%
    05:00 -4°C° 0 mm 3 mps 757 mmHg 57%
    06:00 -4°C° 0 mm 3 mps 757 mmHg 58%
    07:00 -4°C° 0 mm 3 mps 757 mmHg 58%
    08:00 -4°C° 0 mm 3 mps 758 mmHg 58%
    09:00 -5°C° 0 mm 3 mps 759 mmHg 58%
    10:00 -4°C° 0 mm 3 mps 759 mmHg 55%
    11:00 -2°C° 0 mm 3 mps 759 mmHg 51%
    12:00 -1°C° 0 mm 3 mps 759 mmHg 48%
    13:00 -1°C° 0 mm 3 mps 760 mmHg 47%
    14:00 -1°C° 0 mm 3 mps 760 mmHg 46%
    15:00 -1°C° 0 mm 2 mps 760 mmHg 45%
    16:00 -2°C° 0 mm 2 mps 760 mmHg 46%
    17:00 -2°C° 0 mm 2 mps 761 mmHg 47%
    18:00 -3°C° 0 mm 2 mps 761 mmHg 48%
    19:00 -3°C° 0 mm 2 mps 762 mmHg 48%
    20:00 -3°C° 0 mm 2 mps 762 mmHg 47%
    21:00 -3°C° 0 mm 2 mps 762 mmHg 46%
    22:00 -3°C° 0 mm 2 mps 762 mmHg 46%
    23:00 -3°C° 0 mm 2 mps 763 mmHg 45%

    Tomorrow, 16 November, Friday

    Time Temperature Precipitation Wind Pressure Humidity
    00:00 -4°C° 0 mm 2 mps 763 mmHg 44%
    01:00 -4°C° 0 mm 2 mps 763 mmHg 43%
    02:00 -4°C° 0 mm 2 mps 764 mmHg 41%
    03:00 -2°C° 0 mm 1 mps 764 mmHg 39%
    04:00 -4°C° 0 mm 2 mps 764 mmHg 38%
    05:00 -4°C° 0 mm 2 mps 764 mmHg 36%
    06:00 -5°C° 0 mm 2 mps 764 mmHg 35%
    07:00 -5°C° 0 mm 2 mps 765 mmHg 33%
    08:00 -5°C° 0 mm 2 mps 765 mmHg 32%
    09:00 -5°C° 0 mm 2 mps 765 mmHg 31%
    10:00 -4°C° 0 mm 2 mps 765 mmHg 28%
    11:00 -3°C° 0 mm 2 mps 765 mmHg 25%
    12:00 -2°C° 0 mm 2 mps 766 mmHg 23%
    13:00 -2°C° 0 mm 2 mps 765 mmHg 23%
    14:00 +1°C° 0 mm 1 mps 765 mmHg 23%
    15:00 +1°C° 0 mm 1 mps 765 mmHg 24%
    16:00 0°C° 0 mm 1 mps 765 mmHg 25%
    17:00 -1°C° 0 mm 1 mps 765 mmHg 25%
    18:00 -1°C° 0 mm 1 mps 765 mmHg 26%
    19:00 -1°C° 0 mm 1 mps 765 mmHg 26%
    20:00 -2°C° 0 mm 1 mps 765 mmHg 25%
    21:00 -2°C° 0 mm 1 mps 766 mmHg 25%
    22:00 -2°C° 0 mm 1 mps 765 mmHg 25%
    23:00 -2°C° 0 mm 1 mps 765 mmHg 24%

    Day after tomorrow, 17 November, Saturday

    Time Temperature Precipitation Wind Pressure Humidity
    00:00 -2°C° 0 mm 1 mps 765 mmHg 24%
    01:00 -2°C° 0 mm 1 mps 765 mmHg 23%
    02:00 -3°C° 0 mm 0 mps 765 mmHg 23%
    03:00 -3°C° 0 mm 0 mps 765 mmHg 22%
    04:00 -3°C° 0 mm 0 mps 765 mmHg 22%
    05:00 -2°C° 0 mm 1 mps 764 mmHg 22%
    06:00 -2°C° 0 mm 1 mps 764 mmHg 22%
    07:00 -2°C° 0 mm 1 mps 764 mmHg 21%
    08:00 -2°C° 0 mm 1 mps 764 mmHg 21%
    09:00 -2°C° 0 mm 1 mps 763 mmHg 21%
    10:00 -1°C° 0 mm 1 mps 763 mmHg 20%
    11:00 -2°C° 0 mm 2 mps 762 mmHg 19%
    12:00 -1°C° 0 mm 2 mps 762 mmHg 18%
    13:00 -1°C° 0 mm 2 mps 761 mmHg 19%
    14:00 -1°C° 0 mm 2 mps 761 mmHg 20%
    15:00 -1°C° 0 mm 2 mps 760 mmHg 21%
    16:00 -1°C° 0 mm 3 mps 759 mmHg 22%
    17:00 -2°C° 0 mm 3 mps 758 mmHg 24%
    18:00 -4°C° 0 mm 3 mps 758 mmHg 25%
    19:00 -4°C° 0 mm 3 mps 757 mmHg 26%
    20:00 -3°C° 0 mm 4 mps 756 mmHg 27%
    21:00 -3°C° 0 mm 4 mps 756 mmHg 28%
    22:00 -3°C° 0 mm 4 mps 755 mmHg 35%
    23:00 -3°C° 0 mm 4 mps 754 mmHg 42%

    18 November, Sunday

    Time Temperature Precipitation Wind Pressure Humidity
    00:00 -3°C° 0 mm 4 mps 753 mmHg 49%
    01:00 -3°C° 0.3 mm 4 mps 753 mmHg 60%
    02:00 -4°C° 0.3 mm 4 mps 752 mmHg 72%
    03:00 -4°C° 0.3 mm 4 mps 751 mmHg 84%
    04:00 -4°C° 0.2 mm 4 mps 750 mmHg 86%
    05:00 -4°C° 0.2 mm 4 mps 749 mmHg 88%
    06:00 -4°C° 0.2 mm 4 mps 749 mmHg 90%
    07:00 -2°C° 0.1 mm 3 mps 748 mmHg 91%
    08:00 -2°C° 0.1 mm 3 mps 748 mmHg 92%
    09:00 -2°C° 0.1 mm 3 mps 747 mmHg 92%
    10:00 -2°C° 0.1 mm 2 mps 747 mmHg 92%
    11:00 -1°C° 0.1 mm 2 mps 747 mmHg 91%
    12:00 -1°C° 0.1 mm 2 mps 746 mmHg 90%
    13:00 +1°C° 0.1 mm 1 mps 746 mmHg 91%
    14:00 +1°C° 0.1 mm 1 mps 746 mmHg 92%
    15:00 +1°C° 0.1 mm 1 mps 746 mmHg 93%
    16:00 +1°C° 0.1 mm 1 mps 746 mmHg 94%
    17:00 +1°C° 0.1 mm 1 mps 746 mmHg 95%
    18:00 0°C° 0.1 mm 1 mps 746 mmHg 95%
    19:00 0°C° 0.1 mm 1 mps 746 mmHg 95%
    20:00 0°C° 0.1 mm 1 mps 746 mmHg 95%
    21:00 0°C° 0.1 mm 1 mps 746 mmHg 95%
    22:00 -2°C° 0.1 mm 2 mps 746 mmHg 96%
    23:00 -2°C° 0.1 mm 2 mps 747 mmHg 96%

    19 November, Monday

    Time Temperature Precipitation Wind Pressure Humidity
    00:00 -2°C° 0.1 mm 2 mps 747 mmHg 96%
    01:00 -2°C° 0.1 mm 3 mps 747 mmHg 94%
    02:00 -2°C° 0.1 mm 3 mps 747 mmHg 93%
    03:00 -4°C° 0.1 mm 3 mps 748 mmHg 92%
    04:00 -4°C° 0.1 mm 4 mps 748 mmHg 88%
    05:00 -4°C° 0.1 mm 4 mps 748 mmHg 84%
    06:00 -4°C° 0.1 mm 4 mps 749 mmHg 79%
    07:00 -5°C° 0 mm 4 mps 749 mmHg 76%
    08:00 -5°C° 0 mm 4 mps 750 mmHg 72%
    09:00 -5°C° 0 mm 4 mps 750 mmHg 68%
    10:00 -5°C° 0 mm 4 mps 751 mmHg 68%
    11:00 -5°C° 0 mm 4 mps 751 mmHg 68%
    12:00 -4°C° 0 mm 4 mps 752 mmHg 67%
    13:00 -4°C° 0 mm 4 mps 752 mmHg 72%
    14:00 -4°C° 0 mm 4 mps 752 mmHg 76%
    15:00 -4°C° 0 mm 4 mps 752 mmHg 80%
    16:00 -4°C° 0 mm 4 mps 753 mmHg 82%
    17:00 -4°C° 0 mm 4 mps 753 mmHg 84%
    18:00 -4°C° 0 mm 4 mps 753 mmHg 86%
    19:00 -4°C° 0 mm 4 mps 753 mmHg 85%
    20:00 -4°C° 0 mm 4 mps 753 mmHg 85%
    21:00 -4°C° 0 mm 4 mps 753 mmHg 85%
    22:00 -4°C° 0 mm 4 mps 753 mmHg 85%
    23:00 -5°C° 0 mm 4 mps 754 mmHg 85%

    20 November, Tuesday

    Time Temperature Precipitation Wind Pressure Humidity
    00:00 -5°C° 0 mm 4 mps 754 mmHg 85%
    01:00 -5°C° 0 mm 4 mps 754 mmHg 87%
    02:00 -5°C° 0 mm 4 mps 754 mmHg 89%
    03:00 -5°C° 0 mm 3 mps 754 mmHg 91%
    04:00 -5°C° 0 mm 4 mps 754 mmHg 92%
    05:00 -5°C° 0 mm 4 mps 754 mmHg 92%
    06:00 -4°C° 0 mm 4 mps 753 mmHg 93%
    07:00 -5°C° 0 mm 3 mps 753 mmHg 93%
    08:00 -5°C° 0 mm 3 mps 753 mmHg 93%
    09:00 -5°C° 0 mm 3 mps 753 mmHg 93%
    10:00 -5°C° 0 mm 3 mps 753 mmHg 91%
    11:00 -4°C° 0 mm 3 mps 753 mmHg 88%
    12:00 -4°C° 0 mm 3 mps 753 mmHg 86%
    13:00 -3°C° 0 mm 2 mps 753 mmHg 87%
    14:00 -3°C° 0 mm 2 mps 752 mmHg 87%
    15:00 -3°C° 0 mm 2 mps 752 mmHg 87%
    16:00 -3°C° 0 mm 2 mps 752 mmHg 88%
    17:00 -3°C° 0 mm 2 mps 752 mmHg 89%
    18:00 -4°C° 0 mm 2 mps 751 mmHg 90%
    19:00 -4°C° 0 mm 2 mps 751 mmHg 90%
    20:00 -4°C° 0 mm 2 mps 751 mmHg 91%
    21:00 -5°C° 0 mm 2 mps 750 mmHg 91%
    22:00 -5°C° 0 mm 2 mps 750 mmHg 91%
    23:00 -5°C° 0 mm 2 mps 750 mmHg 91%
    Show more